[[{"header":{"parameterUnit":"m.s-1","parameterCategory":1,"la1":30.2991,"la2":30.254,"lo1":-89.0895,"lo2":-89.0444,"dy":0.0017,"dx":0.0017,"nx":28,"ny":28,"refTime":"2025-08-20T21:00:00:Z","depth":0,"parameterNumber":2,"parameterNumberName":"U-component_of_WINDS"},"data":[0,0,0,0,0,0,0,0,0,0,0,0,0,0,0,0,0,0,0,0,0,0,0,0,0,0,0,0,0,0,0,0,0,0,0,0,0,0,0,0,0,0,0,0,0,0,0,0,0,0,0,0,0,0,0,0,0,0,0.3075,0.3075,0,0.315,0.3151,0.3152,0.3191,0.3191,0.3191,0.3191,0.3267,0.3269,0.327,0,0,0,0,0,0,0,0,0,0,0,0,0,0.2963,0.2965,0.3075,0.3076,0.3077,0.315,0.3151,0.3152,0.3191,0.3191,0.3191,0.3191,0.3266,0.3268,0.3271,0,0,0,0,0,0,0,0,0,0,0,0,0,0.3022,0.2965,0.3074,0.3105,0.3108,0.315,0.3151,0.3152,0.3191,0.3191,0.3191,0.3191,0.3265,0.3268,0.3271,0.3288,0,0,0.328,0.3281,0,0,0,0,0,0,0,0,0.3019,0.3026,0.3099,0.3103,0.3107,0.3161,0.3139,0.3198,0.3191,0.3159,0.3191,0.3191,0.3231,0.3237,0.3251,0.3291,0.3294,0.328,0.3282,0.3283,0.3284,0,0,0,0,0,0,0,0.3014,0.3023,0.3104,0.31,0.3105,0.3114,0.3122,0.315,0.3194,0.3162,0.3165,0.3173,0.3233,0.3248,0.3253,0.3296,0.328,0.3283,0.3285,0.3286,0.3353,0.3353,0,0,0,0,0,0,0.3006,0.3019,0.3102,0.3107,0.3062,0.3116,0.3125,0.3143,0.3194,0.3201,0.3173,0.3175,0.3243,0.325,0.3256,0.3279,0.3283,0.3286,0.3288,0.3353,0.3353,0.3353,0,0,0,0,0,0,0.3003,0.3013,0.3099,0.3064,0.3076,0.3118,0.3138,0.3145,0.316,0.3202,0.321,0.318,0.3243,0.3252,0.3279,0.3282,0.3287,0.329,0.3353,0.3353,0.3353,0.3324,0,0,0,0,0,0,0.3,0.3011,0.3019,0.3064,0.3077,0.3122,0.3138,0.3146,0.3165,0.3168,0.3211,0.3218,0.3244,0.3275,0.3282,0.3286,0.3292,0.3353,0.3353,0.3353,0.3325,0.3323,0.3321,0,0,0,0,0,0.2996,0.3007,0.3019,0.3029,0.3087,0.3122,0.3129,0.3159,0.3165,0.3172,0.3199,0.3217,0.328,0.3277,0.3286,0.3291,0.3353,0.3353,0.3353,0.3326,0.3323,0.3321,0,0,0,0,0,0,0.2961,0.3014,0.3027,0.3054,0.3083,0.3128,0.3138,0.3156,0.3183,0.3185,0.322,0.323,0.3254,0.3275,0.3271,0.3309,0.3318,0.332,0.3294,0.3293,0.3291,0.3285,0.3295,0,0,0,0,0,0.2957,0.2981,0.3025,0.3045,0.3059,0.3096,0.3112,0.3132,0.3164,0.3176,0.3206,0.3235,0.3261,0.3278,0.3305,0.3328,0.3338,0.3335,0.3333,0.3332,0.3333,0.3346,0.3345,0.3353,0.3353,0.3353,0,0,0.2948,0.2979,0.2992,0.3038,0.3064,0.3087,0.3106,0.313,0.3148,0.318,0.3208,0.323,0.3265,0.3291,0.3303,0.3309,0.3333,0.3332,0.333,0.3332,0.3346,0.3345,0.3344,0.3353,0.3353,0.3353,0,0,0.2943,0.297,0.2989,0.3013,0.3051,0.3076,0.308,0.3123,0.3139,0.3168,0.3192,0.3213,0.3258,0.3282,0.33,0.3304,0.3321,0.3312,0.3302,0.3315,0.3314,0.3314,0.3315,0.3315,0.3313,0.3313,0.3313,0,0.2927,0.2964,0.2996,0.3019,0.3038,0.3068,0.3087,0.311,0.3154,0.3166,0.3172,0.3229,0.3255,0.3286,0.3287,0.33,0.3306,0.3307,0.3312,0.3312,0.3312,0.3313,0.3314,0.3311,0.3311,0.3312,0.3312,0,0.2942,0.2968,0.2978,0.3021,0.3041,0.3062,0.3096,0.3113,0.3131,0.3155,0.3184,0.3216,0.3249,0.3258,0.3276,0.3291,0.3294,0.3305,0.3315,0.3309,0.3311,0.3312,0.3309,0.331,0.331,0.3311,0,0,0.2919,0.2978,0.2982,0.3001,0.3044,0.3064,0.3086,0.3119,0.3133,0.3162,0.3181,0.3218,0.3229,0.3249,0.327,0.3281,0.3282,0.3291,0.3293,0.3288,0.33,0.3291,0.3291,0.3293,0.3293,0.3294,0.3297,0,0.292,0.2962,0.2991,0.302,0.3044,0.3072,0.3091,0.312,0.3142,0.3165,0.319,0.3215,0.3228,0.324,0.3252,0.3279,0.3285,0.3279,0.3311,0.3311,0.3301,0.3292,0.3283,0.3285,0.3298,0.3298,0.3298,0,0.2928,0.2957,0.2989,0.3029,0.304,0.3057,0.3089,0.3111,0.3143,0.3159,0.3181,0.3203,0.3227,0.3234,0.3267,0.3263,0.3277,0.3292,0.3293,0.3297,0.3304,0.3296,0.3286,0.3286,0.33,0.33,0.33,0,0.2907,0.2953,0.2979,0.2994,0.3043,0.3054,0.3074,0.3107,0.3124,0.3153,0.3165,0.3195,0.3211,0.3234,0.3263,0.3266,0.3292,0.3303,0.3306,0.3305,0.331,0.3309,0.3302,0.3319,0.3319,0.3319,0.3319,0,0.2905,0.2924,0.297,0.2985,0.3007,0.3039,0.3059,0.3082,0.3111,0.3131,0.3157,0.3175,0.3212,0.3234,0.3257,0.328,0.3288,0.3301,0.3306,0.3298,0.3296,0.3308,0.3309,0.3319,0.3319,0.3319,0.3319,0,0.2886,0.2917,0.2947,0.299,0.3001,0.3015,0.3052,0.3067,0.3091,0.3116,0.3124,0.3161,0.3189,0.322,0.3257,0.3272,0.3294,0.3303,0.3283,0.3287,0.3288,0.3287,0.3288,0.3289,0.3305,0.3305,0.3305,0,0.2883,0.2898,0.2943,0.2958,0.2978,0.3002,0.3021,0.3054,0.3072,0.3109,0.312,0.315,0.3175,0.3218,0.3248,0.3277,0.3286,0.3284,0.3291,0.3282,0.3286,0.3284,0.3286,0.3282,0.3282,0.3282,0.3282,0,0.2874,0.2889,0.2915,0.2946,0.2967,0.2993,0.302,0.3031,0.3069,0.3088,0.3117,0.3136,0.3175,0.3204,0.3236,0.3257,0.3275,0.3279,0.3282,0.3273,0.3261,0.3267,0.3278,0.3279,0.3279,0.328,0.328,0.328,0.2862,0.2877,0.2911,0.2938,0.2962,0.2987,0.3004,0.303,0.3054,0.3089,0.3106,0.3134,0.3166,0.3212,0.3231,0.3254,0.326,0.3263,0.3264,0.3264,0.3261,0.3258,0.326,0.326,0.326,0.326,0.326,0,0.2855,0.2878,0.2903,0.294,0.2962,0.2978,0.3009,0.3025,0.305,0.3078,0.3103,0.3135,0.3163,0.3195,0.3225,0.3237,0.3246,0.3243,0.3243,0.3247,0.3255,0.325,0.3236,0.3236,0.3236,0.3236,0.3236,0.3236,0.2853,0.2878,0.2897,0.2934,0.2957,0.2985,0.3001,0.3024,0.3046,0.3082,0.3105,0.3126,0.3156,0.3188,0.3214,0.3223,0.3232,0.3227,0.3238,0.3245,0.3247,0.3249,0.3244,0.3229,0.3229,0.3229,0.3229,0.3229]},{"header":{"parameterUnit":"m.s-1","parameterCategory":1,"la1":30.2991,"la2":30.254,"lo1":-89.0895,"lo2":-89.0444,"dy":0.0017,"dx":0.0017,"nx":28,"ny":28,"refTime":"2025-08-20T21:00:00:Z","depth":0,"parameterNumber":3,"parameterNumberName":"V-component_of_WINDS"},"data":[0,0,0,0,0,0,0,0,0,0,0,0,0,0,0,0,0,0,0,0,0,0,0,0,0,0,0,0,0,0,0,0,0,0,0,0,0,0,0,0,0,0,0,0,0,0,0,0,0,0,0,0,0,0,0,0,0,0,3.5336,3.5336,0,3.5309,3.5309,3.5309,3.5287,3.5287,3.5286,3.5286,3.5256,3.5256,3.5255,0,0,0,0,0,0,0,0,0,0,0,0,0,3.5367,3.5367,3.5336,3.5336,3.5336,3.5309,3.5309,3.5309,3.5287,3.5287,3.5286,3.5286,3.5256,3.5256,3.5255,0,0,0,0,0,0,0,0,0,0,0,0,0,3.5348,3.5366,3.5336,3.5322,3.532,3.5309,3.5309,3.5308,3.5287,3.5287,3.5286,3.5286,3.5257,3.5256,3.5255,3.5256,0,0,3.5252,3.5252,0,0,0,0,0,0,0,0,3.5349,3.5347,3.5324,3.5323,3.5321,3.5301,3.5309,3.5291,3.5287,3.5299,3.5286,3.5286,3.5271,3.5269,3.5265,3.5255,3.5253,3.5252,3.5252,3.5251,3.5251,0,0,0,0,0,0,0,3.5351,3.5348,3.5326,3.5324,3.5322,3.5316,3.5313,3.5305,3.5287,3.5298,3.5297,3.5294,3.527,3.5266,3.5264,3.5253,3.5252,3.5251,3.5251,3.5251,3.5241,3.5242,0,0,0,0,0,0,3.5355,3.5349,3.5326,3.5325,3.5335,3.5315,3.5312,3.5308,3.5287,3.5284,3.5294,3.5293,3.5267,3.5265,3.5263,3.5262,3.5251,3.525,3.525,3.5241,3.5241,3.5242,0,0,0,0,0,0,3.5355,3.5353,3.5327,3.5337,3.5333,3.5315,3.5311,3.5307,3.5303,3.5284,3.5281,3.5293,3.5267,3.5264,3.5258,3.5261,3.525,3.5249,3.5241,3.5241,3.5242,3.5261,0,0,0,0,0,0,3.5356,3.5353,3.5354,3.5337,3.5333,3.5324,3.5311,3.5307,3.5301,3.53,3.5282,3.5279,3.5267,3.5259,3.5257,3.5259,3.5249,3.524,3.5241,3.5241,3.526,3.5262,3.5264,0,0,0,0,0,3.5357,3.536,3.5354,3.5351,3.5333,3.5324,3.5321,3.5308,3.5302,3.5302,3.529,3.528,3.5261,3.5259,3.5256,3.5258,3.524,3.5241,3.5241,3.5259,3.5261,3.5264,0,0,0,0,0,0,3.5377,3.5357,3.5351,3.5348,3.5338,3.532,3.532,3.5311,3.5302,3.53,3.5283,3.5279,3.5274,3.5266,3.5264,3.5258,3.5249,3.5249,3.5263,3.5266,3.5267,3.5269,3.5248,0,0,0,0,0,3.5381,3.5376,3.5359,3.5358,3.5354,3.5338,3.5333,3.5324,3.5312,3.5308,3.5295,3.5284,3.5275,3.527,3.5261,3.5259,3.5254,3.5259,3.5261,3.5262,3.5262,3.5259,3.5261,3.5244,3.5244,3.5244,0,0,3.5389,3.5378,3.5376,3.5362,3.5353,3.5347,3.5334,3.5329,3.5324,3.5306,3.53,3.529,3.5277,3.5272,3.5269,3.5265,3.5266,3.5263,3.5264,3.5263,3.526,3.5262,3.5263,3.5244,3.5244,3.5244,0,0,3.5401,3.5393,3.5391,3.5382,3.5369,3.5358,3.5358,3.5342,3.5335,3.5329,3.5315,3.5309,3.5295,3.5285,3.5279,3.5287,3.5277,3.5285,3.5294,3.5292,3.5293,3.5294,3.5296,3.5297,3.5285,3.5285,3.5285,0,3.5413,3.5404,3.5391,3.5386,3.538,3.5365,3.5362,3.5354,3.5339,3.5334,3.5329,3.5311,3.5301,3.5294,3.5296,3.5291,3.5289,3.5286,3.5294,3.5295,3.5296,3.5297,3.5298,3.5286,3.5286,3.5286,3.5286,0,3.5419,3.5413,3.5413,3.5399,3.5393,3.5389,3.5374,3.537,3.5361,3.5351,3.5344,3.5331,3.5319,3.5317,3.5307,3.5308,3.5305,3.5297,3.5288,3.5299,3.53,3.53,3.5288,3.5287,3.5287,3.5287,0,0,3.5441,3.542,3.542,3.5413,3.5398,3.5393,3.5388,3.5377,3.5373,3.5363,3.5358,3.5347,3.534,3.5332,3.5322,3.532,3.5326,3.5312,3.5312,3.5314,3.5324,3.533,3.5331,3.532,3.532,3.532,3.5325,0,3.545,3.5441,3.5429,3.5424,3.5418,3.5404,3.54,3.539,3.538,3.5373,3.5362,3.5354,3.5346,3.5341,3.5338,3.5326,3.5328,3.5326,3.5314,3.5313,3.5317,3.5332,3.5337,3.5343,3.5326,3.5326,3.5326,0,3.5458,3.545,3.5445,3.5429,3.5426,3.5423,3.5412,3.5406,3.5393,3.5387,3.5378,3.5367,3.5361,3.5354,3.5344,3.5343,3.5337,3.533,3.533,3.5328,3.532,3.5329,3.5345,3.5345,3.5327,3.5327,3.5327,0,3.5474,3.5461,3.5456,3.5451,3.5434,3.5431,3.5424,3.5411,3.5405,3.5396,3.5391,3.5381,3.5374,3.5366,3.5352,3.5348,3.5343,3.5335,3.5337,3.5337,3.5336,3.5336,3.535,3.5334,3.5334,3.5334,3.5334,0,3.5484,3.5482,3.5463,3.546,3.5456,3.5442,3.5439,3.543,3.5419,3.5413,3.54,3.5395,3.5377,3.5369,3.5359,3.5352,3.5349,3.5343,3.534,3.5343,3.5344,3.5339,3.5338,3.5334,3.5334,3.5334,3.5334,0,3.5501,3.5489,3.5482,3.5466,3.5462,3.546,3.5446,3.5442,3.5432,3.5425,3.5423,3.5406,3.5397,3.5382,3.5368,3.5361,3.5355,3.5351,3.536,3.5358,3.536,3.536,3.5371,3.5371,3.5355,3.5356,3.5356,0,3.5508,3.5505,3.549,3.5485,3.5478,3.5471,3.5465,3.5451,3.5446,3.5432,3.5429,3.5419,3.5409,3.5395,3.5381,3.537,3.5365,3.5369,3.5363,3.5366,3.5364,3.5364,3.5363,3.537,3.5371,3.5371,3.5371,0,3.5521,3.5515,3.5507,3.5498,3.5491,3.5483,3.5474,3.5471,3.5454,3.5448,3.5439,3.5432,3.5418,3.5407,3.5394,3.5385,3.5375,3.5373,3.5373,3.5376,3.5381,3.5378,3.5363,3.5373,3.5373,3.5373,3.5373,3.5372,3.5532,3.5529,3.5518,3.5509,3.5501,3.5493,3.5488,3.5478,3.547,3.5458,3.545,3.5441,3.5428,3.541,3.5402,3.5394,3.5389,3.5389,3.5389,3.5389,3.539,3.5383,3.5391,3.5391,3.5391,3.5391,3.5391,0,3.5544,3.5536,3.5529,3.5516,3.551,3.5502,3.5491,3.5486,3.5479,3.5468,3.546,3.5448,3.5438,3.5424,3.5412,3.5408,3.5403,3.5406,3.5405,3.5403,3.5395,3.5396,3.541,3.541,3.541,3.541,3.541,3.541,3.5549,3.5543,3.5536,3.5526,3.5518,3.551,3.5504,3.5496,3.5488,3.5476,3.5468,3.5459,3.5447,3.5434,3.5424,3.542,3.5416,3.542,3.5414,3.5406,3.5404,3.5402,3.5403,3.5419,3.5419,3.5423,3.5423,3.5423]}]]